Back to catalog

STARLINK-32613

AliveCommunicationsVLEO
NORAD 61970·PAYLOAD·🇺🇸 United States

Launched Nov 14, 2024 from Cape Canaveral Space Force Station

Loading…

Next Passes (next 24 hours)

TLE

FreshSource: CelesTrak SupGP

Epoch: Sep 15, 2026, 02:55 UTC

1 61970C 24210M   26258.12201389 -.00060567  00000+0 -21943-2 0  2585
2 61970  42.9997 190.3375 0001367 273.3572 220.8146 15.27600051    10

Track STARLINK-32613 in real time with AllMySat

Download on the App Store